Gustavus, AK

11:49 PM AKDT on June 22, 2017 (GMT -0800)
Gustavus

Weather History for PAGS - October, 2013

Change the Weather History Date:

Friday, October 18, 2013

  Actual Average Record
Temperature  
Mean Temperature 47 °F -  
Max Temperature 50 °F 48 °F 58 °F (1979)
Min Temperature 44 °F 36 °F 23 °F (1959)
Degree Days  
Heating Degree Days 18    
Moisture  
Dew Point 43 °F    
Average Humidity 87    
Maximum Humidity 93    
Minimum Humidity 81    
Precipitation  
Precipitation 0.00 in - - ()
Sea Level Pressure  
Sea Level Pressure 30.22 in    
Wind  
Wind Speed 7 mph (SE)    
Max Wind Speed 16 mph    
Max Gust Speed 21 mph    
Visibility 10 miles    
Events      
Averages and records for this station are not official NWS values.
T = Trace of Precipitation, MM = Missing Value Source: NWS Daily Summary

Daily Weather History Graph

Daily Weather History Graph

Search for Another Location

Airport or City:

Trip Planner

Search our weather history database for the weather conditions in past years. The results will help you decide how hot, cold, wet, or windy it might be!

Date:

Astronomy

Oct. 18, 2013 Rise Set
Actual Time 7:46 AM AKDT 5:47 PM AKDT
Civil Twilight 7:06 AM AKDT 6:28 PM AKDT
Nautical Twilight 6:19 AM AKDT 7:14 PM AKDT
Astronomical Twilight 5:33 AM AKDT 8:00 PM AKDT
Moon 5:35 PM AKDT (10/18) 7:32 AM AKDT (10/18)
Length of Visible Light 11h 22m
Length of Day
10h 01m
Full, 100% of the Moon is Illuminated
Oct 18
Full
Oct 18
Full
Oct 26
Last Quarter
Nov 3
New
Nov 9
First Quarter

Hourly Weather History & Observations

Time (AKDT) Temp. Windchill Dew Point Humidity Pressure Visibility Wind Dir Wind Speed Gust Speed Precip Events Conditions
12:16 AM 44.6 °F 42.2 °F 42.8 °F 93% 30.30 in 10.0 mi East 4.6 mph - N/A   Overcast
12:36 AM 44.6 °F 41.4 °F 41.0 °F 87% 30.29 in 10.0 mi ESE 5.8 mph - N/A   Overcast
12:56 AM 44.6 °F 43.1 °F 42.8 °F 93% 30.30 in 10.0 mi East 3.5 mph - N/A   Overcast
1:16 AM 44.6 °F - 42.8 °F 93% 30.30 in 10.0 mi Calm Calm - N/A   Overcast
1:36 AM 46.4 °F 43.5 °F 41.0 °F 81% 30.30 in 10.0 mi South 5.8 mph - N/A   Overcast
1:56 AM 46.4 °F 43.5 °F 41.0 °F 81% 30.30 in 10.0 mi South 5.8 mph - N/A   Overcast
2:16 AM 46.4 °F - 41.0 °F 81% 30.30 in 10.0 mi Calm Calm - N/A   Overcast
2:36 AM 46.4 °F 43.5 °F 41.0 °F 81% 30.31 in 10.0 mi SE 5.8 mph - N/A   Overcast
2:56 AM 46.4 °F 43.5 °F 42.8 °F 87% 30.31 in 10.0 mi ESE 5.8 mph - N/A   Overcast
3:16 AM 46.4 °F 43.5 °F 42.8 °F 87% 30.30 in 10.0 mi East 5.8 mph - N/A   Overcast
3:36 AM 44.6 °F 43.1 °F 41.0 °F 87% 30.31 in 10.0 mi ENE 3.5 mph - N/A   Overcast
3:56 AM 46.4 °F 45.2 °F 41.0 °F 81% 30.30 in 10.0 mi ESE 3.5 mph - N/A   Overcast
4:16 AM 46.4 °F 42.9 °F 42.8 °F 87% 30.29 in 10.0 mi ESE 6.9 mph - N/A   Overcast
4:36 AM 46.4 °F 43.5 °F 42.8 °F 87% 30.29 in 10.0 mi ESE 5.8 mph - N/A   Overcast
4:56 AM 46.4 °F 43.5 °F 42.8 °F 87% 30.29 in 10.0 mi SE 5.8 mph - N/A   Overcast
5:16 AM 46.4 °F 43.5 °F 42.8 °F 87% 30.28 in 10.0 mi SE 5.8 mph - N/A   Overcast
5:36 AM 46.4 °F 44.3 °F 42.8 °F 87% 30.27 in 10.0 mi SE 4.6 mph - N/A   Overcast
5:56 AM 44.6 °F 43.1 °F 42.8 °F 93% 30.27 in 10.0 mi ESE 3.5 mph - N/A   Overcast
6:16 AM 46.4 °F 45.2 °F 42.8 °F 87% 30.26 in 10.0 mi East 3.5 mph - N/A   Overcast
6:36 AM 46.4 °F 42.4 °F 42.8 °F 87% 30.27 in 10.0 mi SE 8.1 mph - N/A   Overcast
6:56 AM 46.4 °F 42.4 °F 42.8 °F 87% 30.27 in 10.0 mi SE 8.1 mph - N/A   Overcast
7:16 AM 46.4 °F 41.9 °F 42.8 °F 87% 30.27 in 10.0 mi SE 9.2 mph - N/A   Overcast
7:36 AM 46.4 °F 41.5 °F 42.8 °F 87% 30.26 in 10.0 mi SE 10.4 mph - N/A   Overcast
7:56 AM 46.4 °F 42.4 °F 42.8 °F 87% 30.25 in 10.0 mi SE 8.1 mph - N/A   Overcast
8:16 AM 44.6 °F 40.2 °F 42.8 °F 93% 30.25 in 10.0 mi SE 8.1 mph - N/A   Overcast
8:36 AM 44.6 °F 39.7 °F 42.8 °F 93% 30.25 in 8.0 mi SE 9.2 mph - N/A   Overcast
8:56 AM 44.6 °F 39.7 °F 42.8 °F 93% 30.24 in 7.0 mi SE 9.2 mph - N/A   Overcast
9:16 AM 44.6 °F 39.7 °F 42.8 °F 93% 30.24 in 5.0 mi SE 9.2 mph - N/A   Overcast
9:36 AM 44.6 °F 40.7 °F 42.8 °F 93% 30.24 in 4.0 mi SE 6.9 mph - N/A   Overcast
9:56 AM 44.6 °F 40.2 °F 42.8 °F 93% 30.24 in 5.0 mi SE 8.1 mph - N/A   Overcast
10:16 AM 44.6 °F 42.2 °F 42.8 °F 93% 30.25 in 3.0 mi ESE 4.6 mph - N/A   Overcast
10:36 AM 44.6 °F 42.2 °F 42.8 °F 93% 30.25 in 4.0 mi ESE 4.6 mph - N/A   Overcast
10:56 AM 44.6 °F 39.7 °F 42.8 °F 93% 30.24 in 10.0 mi SE 9.2 mph - N/A   Overcast
11:16 AM 44.6 °F 39.7 °F 42.8 °F 93% 30.24 in 10.0 mi ESE 9.2 mph - N/A   Overcast
11:36 AM 46.4 °F 42.9 °F 42.8 °F 87% 30.25 in 10.0 mi SE 6.9 mph - N/A   Overcast
11:56 AM 46.4 °F 42.4 °F 42.8 °F 87% 30.24 in 10.0 mi ESE 8.1 mph - N/A   Overcast
12:16 PM 46.4 °F 42.9 °F 42.8 °F 87% 30.24 in 10.0 mi SE 6.9 mph - N/A   Overcast
12:36 PM 46.4 °F 41.9 °F 42.8 °F 87% 30.24 in 10.0 mi SSE 9.2 mph - N/A   Overcast
12:56 PM 46.4 °F 41.5 °F 42.8 °F 87% 30.23 in 10.0 mi SE 10.4 mph - N/A   Overcast
1:16 PM 46.4 °F 41.5 °F 44.6 °F 93% 30.22 in 10.0 mi SE 10.4 mph - N/A   Overcast
1:36 PM 46.4 °F 42.9 °F 44.6 °F 93% 30.22 in 10.0 mi ESE 6.9 mph - N/A   Overcast
1:56 PM 46.4 °F 42.4 °F 44.6 °F 93% 30.22 in 10.0 mi SE 8.1 mph - N/A   Overcast
2:16 PM 48.2 °F - 44.6 °F 87% 30.21 in 10.0 mi SE 9.2 mph - N/A   Overcast
2:36 PM 48.2 °F - 44.6 °F 87% 30.20 in 10.0 mi SE 9.2 mph 16.1 mph N/A   Overcast
2:56 PM 48.2 °F - 44.6 °F 87% 30.20 in 10.0 mi SE 11.5 mph - N/A   Overcast
3:16 PM 48.2 °F - 44.6 °F 87% 30.20 in 10.0 mi SE 11.5 mph - N/A   Overcast
3:36 PM 48.2 °F - 44.6 °F 87% 30.19 in 10.0 mi SE 16.1 mph - N/A   Overcast
3:56 PM 48.2 °F - 44.6 °F 87% 30.19 in 10.0 mi ESE 10.4 mph - N/A   Overcast
4:16 PM 48.2 °F - 44.6 °F 87% 30.19 in 10.0 mi SE 11.5 mph 17.3 mph N/A   Overcast
4:36 PM 48.2 °F - 44.6 °F 87% 30.18 in 10.0 mi SE 12.7 mph 17.3 mph N/A   Overcast
4:56 PM 48.2 °F - 44.6 °F 87% 30.18 in 10.0 mi SE 11.5 mph 16.1 mph N/A   Overcast
5:16 PM 48.2 °F - 44.6 °F 87% 30.17 in 10.0 mi SE 12.7 mph - N/A   Overcast
5:36 PM 48.2 °F - 42.8 °F 82% 30.17 in 10.0 mi SSE 13.8 mph 19.6 mph N/A   Overcast
5:56 PM 48.2 °F - 44.6 °F 87% 30.16 in 10.0 mi SE 10.4 mph - N/A   Overcast
6:16 PM 48.2 °F - 44.6 °F 87% 30.15 in 10.0 mi SE 13.8 mph - N/A   Overcast
6:36 PM 48.2 °F - 44.6 °F 87% 30.16 in 10.0 mi SE 11.5 mph - N/A   Overcast
6:56 PM 48.2 °F - 44.6 °F 87% 30.15 in 10.0 mi SE 10.4 mph 18.4 mph N/A   Overcast
7:16 PM 48.2 °F - 44.6 °F 87% 30.15 in 10.0 mi ESE 15.0 mph 18.4 mph N/A   Overcast
7:36 PM 48.2 °F - 44.6 °F 87% 30.15 in 10.0 mi SE 11.5 mph 20.7 mph N/A   Overcast
7:56 PM 48.2 °F - 44.6 °F 87% 30.15 in 10.0 mi SE 13.8 mph 19.6 mph N/A   Overcast
8:16 PM 50.0 °F - 44.6 °F 82% 30.15 in 10.0 mi SE 11.5 mph - N/A   Overcast
8:36 PM 50.0 °F - 44.6 °F 82% 30.15 in 10.0 mi SE 11.5 mph - N/A   Overcast
8:56 PM 50.0 °F - 44.6 °F 82% 30.15 in 10.0 mi SE 8.1 mph - N/A   Overcast
9:16 PM 50.0 °F - 44.6 °F 82% 30.15 in 10.0 mi SE 6.9 mph - N/A   Overcast
9:36 PM 50.0 °F - 44.6 °F 82% 30.15 in 10.0 mi SE 6.9 mph - N/A   Overcast
9:56 PM 50.0 °F - 44.6 °F 82% 30.15 in 10.0 mi SE 5.8 mph - N/A   Overcast
10:16 PM 50.0 °F - 44.6 °F 82% 30.15 in 10.0 mi SE 6.9 mph - N/A   Overcast
10:36 PM 48.2 °F - 44.6 °F 87% 30.14 in 10.0 mi SE 9.2 mph - N/A   Overcast
10:56 PM 48.2 °F - 44.6 °F 87% 30.14 in 10.0 mi SE 10.4 mph - N/A   Overcast
11:16 PM 48.2 °F - 44.6 °F 87% 30.14 in 10.0 mi SE 10.4 mph - N/A   Overcast
11:36 PM 48.2 °F - 44.6 °F 87% 30.14 in 10.0 mi SE 11.5 mph - N/A   Overcast
11:56 PM 48.2 °F - 44.6 °F 87% 30.14 in 10.0 mi SE 11.5 mph - N/A   Overcast